RH
12 13 17 18 24 23 21 20 19 21 42 38 43 42 40 45 57 71 72 41 28 26 29 34 36 39 42 42 44 45 49 62 65 60 72 97 98 94
12 15 19 20 19 18 17 17 19 20 27 36 39 34 32 34 41 46 71 81 61 39 33 36 38 42 45 46 48 55 56 69 92 78 94 98 96 81
16 19 21 20 19 18 17 17 18 18 19 32 30 29 29 30 33 39 48 68 84 97 89 66 45 49 49 50 57 62 72 82 82 87 100 99 91 81
18 20 22 21 21 20 21 22 21 21 19 21 23 27 28 31 32 39 44 67 95 100 100 98 84 74 64 63 70 81 90 89 94 100 96 95 93 86
19 21 24 24 24 25 23 22 22 23 24 22 24 23 25 28 33 39 50 90 94 99 98 100 98 96 92 91 90 93 94 98 99 99 99 96 95 89
22 26 27 27 27 27 26 24 24 23 26 26 26 26 29 31 35 44 68 81 91 94 92 91 99 100 99 100 99 96 100 99 98 97 97 97 98 97
26 30 31 31 30 30 28 29 26 25 25 27 29 30 34 39 48 55 74 80 96 100 96 98 95 99 100 99 100 100 100 100 99 97 96 96 100 100
34 36 36 35 35 34 34 33 29 27 30 30 35 34 39 47 54 63 66 76 93 100 97 98 98 100 100 96 100 100 99 98 98 99 98 100 100 100
42 41 41 40 41 40 39 36 36 36 35 38 37 38 40 44 48 51 69 86 90 100 93 94 96 99 99 98 100 96 96 99 99 100 99 100 100 100
48 49 48 48 48 46 43 43 46 43 42 43 42 42 40 41 56 63 64 68 77 91 98 88 97 94 93 98 94 91 100 100 100 100 100 100 100 100
56 55 56 55 51 48 48 53 51 51 48 48 47 48 50 55 62 68 72 73 84 93 93 93 93 90 85 86 86 99 100 100 99 100 100 100 100 100
66 62 58 56 54 57 57 56 58 57 54 52 52 50 51 51 53 58 87 94 95 98 100 96 92 79 68 77 97 100 100 100 100 100 100 98 97 74
67 66 66 65 69 69 71 72 68 65 64 59 56 55 55 58 74 82 89 92 86 80 79 73 75 79 88 98 100 100 100 99 98 96 94 78 30 35
83 80 81 80 80 81 80 77 73 69 65 62 61 61 66 86 91 86 82 79 77 82 88 89 93 98 100 100 100 100 100 98 73 47 33 30 34 42
88 86 78 80 89 89 82 80 69 72 70 67 75 86 82 74 72 75 79 88 97 100 100 100 100 100 100 95 89 80 64 51 41 40 47 49 45 38
100 100 100 98 97 92 82 75 76 77 76 75 82 77 75 71 78 88 99 100 100 100 98 90 76 57 47 46 55 59 56 50 54 69 72 68 68 67
99 98 91 94 96 97 83 77 85 84 82 84 69 64 69 72 68 72 72 64 60 58 53 54 59 55 50 50 55 55 62 68 61 58 56 61 59 66
100 100 100 100 100 97 87 85 96 93 97 93 82 73 72 72 75 72 67 64 62 57 60 62 63 48 46 47 51 55 50 44 40 43 60 83 89 83
100 100 98 98 100 100 99 96 98 100 100 94 81 82 79 82 74 82 78 71 65 62 64 65 65 60 55 51 53 57 54 43 40 38 50 86 99 97
100 100 100 100 100 100 99 90 94 99 100 100 99 98 86 93 93 93 89 94 90 84 75 75 73 72 76 65 54 42 36 35 28 40 55 75 90 97
100 100 100 99 100 100 100 100 99 100 100 100 100 100 99 100 99 86 82 92 88 86 100 94 86 80 77 69 43 22 21 24 40 57 88 89 82 75
100 100 100 100 100 100 100 100 100 100 100 100 100 100 100 100 100 100 100 100 95 85 93 98 99 92 82 48 31 28 34 49 69 97 100 88 92 84
100 100 100 100 100 100 100 100 100 100 100 97 90 78 85 98 98 100 100 100 100 100 100 96 88 56 37 28 28 33 51 62 89 100 96 70 76 59
Wind_Speed
42 40 39 39 39 38 37 37 38 37 35 36 35 36 37 37 38 41 43 42 45 45 47 49 51 52 52 53 56 57 56 55 55 58 56 62 62 58
42 41 40 40 40 40 39 37 38 37 36 37 37 37 38 39 39 41 43 44 46 47 49 50 52 53 54 56 57 57 58 59 60 57 62 66 60 60
42 41 40 41 39 40 39 38 38 38 36 37 39 40 41 42 42 43 44 46 49 51 53 52 54 54 55 57 58 59 59 61 60 61 63 62 59 61
44 43 42 41 41 41 40 39 40 39 39 37 39 41 43 44 46 46 46 47 48 49 53 56 56 56 57 59 61 63 67 68 63 62 60 60 58 53
46 44 43 44 44 43 44 44 43 42 41 40 40 40 44 45 47 48 48 47 48 49 49 54 58 60 63 65 68 71 73 66 62 61 59 55 50 48
46 46 46 46 46 47 47 46 46 45 41 42 40 42 44 46 46 46 49 51 52 52 51 51 52 57 60 66 72 74 67 59 57 59 54 50 47 49
49 49 48 47 49 50 48 48 49 47 44 41 40 41 43 44 45 48 51 52 54 54 55 54 55 58 57 59 66 69 61 53 48 47 45 46 49 50
50 50 50 51 50 50 49 49 50 49 45 41 42 43 44 46 48 51 52 55 56 56 60 60 60 57 48 45 46 51 47 49 46 45 46 46 49 50
52 52 52 52 52 51 50 50 49 48 44 43 44 45 47 49 51 52 53 56 56 58 59 59 61 60 51 41 42 42 46 47 44 44 45 48 48 47
54 54 55 53 53 51 50 49 47 47 46 46 46 46 47 47 47 47 50 52 53 54 56 58 50 43 40 41 43 44 45 43 45 49 49 46 44 45
56 56 55 55 52 52 50 47 48 47 47 48 48 49 49 50 51 52 54 53 50 48 49 47 41 39 39 41 41 41 44 47 48 47 43 43 42 42
58 57 55 52 52 51 50 49 48 49 50 49 50 50 51 53 54 54 50 50 49 48 45 46 41 40 40 39 38 43 43 42 42 41 41 41 43 42
56 55 54 52 50 49 49 49 50 49 50 50 51 53 54 54 50 48 47 48 46 43 41 42 42 40 41 42 45 44 41 40 39 41 45 45 42 40
53 52 51 50 50 49 49 48 49 50 50 51 51 52 50 47 43 40 41 41 40 40 41 42 43 44 42 40 39 40 40 40 41 43 44 44 43 45
49 48 47 49 49 48 48 48 50 50 51 50 47 44 41 40 38 38 38 38 38 41 41 41 41 37 34 35 38 39 40 42 42 43 44 46 47 48
49 47 48 48 49 48 50 49 49 48 49 47 42 40 37 35 34 33 32 33 33 31 32 34 34 35 34 34 36 38 40 41 44 46 47 48 50 50
52 52 48 49 47 48 48 43 45 46 47 43 37 37 36 36 36 36 35 34 33 33 33 32 32 32 35 37 39 41 43 44 47 51 54 55 57 56
43 44 46 46 47 48 42 42 46 47 46 43 40 40 40 38 39 40 39 39 36 35 36 37 36 38 39 40 41 42 45 49 53 57 59 58 60 60
48 47 46 49 46 45 44 44 45 49 53 52 50 48 46 45 46 44 43 43 42 43 43 43 43 43 45 46 48 50 55 55 57 60 62 64 63 64
52 49 50 50 49 49 50 47 48 52 54 55 50 51 51 53 52 52 52 50 52 52 52 51 52 53 52 51 53 56 57 58 58 59 64 67 67 66
51 51 50 51 53 54 53 52 53 50 51 53 51 53 52 55 55 55 58 59 59 61 62 59 58 58 59 58 54 53 54 57 60 63 65 66 67 66
52 51 50 51 54 54 53 54 52 52 52 51 50 50 53 54 55 59 59 60 63 60 57 58 60 63 63 56 54 54 56 61 64 67 66 64 65 66
55 56 55 54 54 55 55 55 59 58 56 57 54 51 55 58 59 59 60 63 61 63 65 66 63 58 56 57 59 59 61 64 63 62 64 63 62 64
Wind_Direction
252 253 256 257 257 259 260 262 263 262 257 260 261 266 270 272 273 274 274 274 273 274 275 274 276 278 277 276 277 279 282 282 286 290 293 296 300 303
252 254 254 254 257 259 260 262 263 261 260 262 262 266 268 270 274 277 276 276 276 275 276 277 277 277 278 278 278 279 281 283 287 290 296 296 300 303
253 254 256 257 258 258 260 264 264 264 264 260 264 268 270 273 275 277 278 278 278 278 276 274 276 278 278 279 279 279 281 283 284 288 294 296 299 303
253 254 257 259 261 263 264 265 267 268 267 266 266 268 270 273 276 277 277 277 279 281 281 278 274 276 277 278 277 277 278 282 287 290 293 294 299 301
254 255 257 258 261 263 265 267 268 268 270 271 270 268 269 270 273 274 274 276 278 280 283 287 283 279 274 274 275 276 278 285 288 289 291 293 295 300
253 254 256 258 261 263 265 268 271 270 270 269 268 268 269 270 270 270 271 273 277 279 282 285 289 290 288 283 279 280 284 286 286 290 290 292 295 298
253 255 257 259 261 264 267 269 269 269 269 268 266 267 267 269 269 270 271 273 276 277 279 279 285 289 289 288 286 286 287 284 288 289 295 294 295 298
254 256 258 260 262 265 267 268 269 269 268 268 267 266 267 269 269 271 275 276 278 278 281 285 286 286 281 282 287 282 282 289 290 289 291 291 294 294
253 256 258 260 262 265 266 265 268 269 270 267 267 267 267 268 268 273 277 275 277 281 285 287 286 283 280 279 280 278 287 287 288 285 288 292 291 290
254 256 258 259 262 264 264 265 267 268 267 267 267 267 268 269 272 274 276 279 281 282 283 284 285 282 283 278 278 286 289 282 278 284 290 288 288 293
255 256 259 261 261 262 263 261 263 265 265 265 266 268 268 271 272 273 278 280 283 285 286 282 279 284 287 286 286 286 281 281 284 284 285 288 290 296
257 257 257 258 259 260 262 263 261 260 263 265 266 266 267 270 272 274 277 279 282 283 278 277 281 281 285 287 281 277 280 279 281 283 286 290 296 298
254 256 257 257 258 259 260 261 261 262 264 263 264 266 269 272 275 277 278 279 279 278 278 280 283 285 283 279 275 275 275 280 281 284 291 295 293 293
251 253 254 256 256 257 258 257 260 261 262 263 264 266 269 271 273 273 275 278 281 285 286 285 282 280 279 281 280 281 283 287 289 291 292 292 292 292
247 249 252 253 253 253 255 258 256 260 261 263 267 265 266 270 274 278 281 281 280 277 273 269 271 275 280 290 294 296 294 292 292 293 294 293 295 296
244 246 251 257 255 252 254 254 258 260 262 264 268 271 272 276 280 278 274 268 267 272 280 287 292 293 293 294 293 292 292 291 292 295 296 296 299 300
253 257 257 254 251 247 250 256 258 260 264 265 268 273 276 273 273 271 272 275 278 281 283 286 290 296 301 301 299 299 298 300 303 303 302 301 302 301
242 244 247 248 250 248 252 256 255 259 262 262 264 270 274 275 273 273 270 271 274 279 282 286 287 296 299 301 299 299 301 303 301 301 298 297 299 300
233 238 243 244 244 249 254 258 257 258 260 259 261 263 267 271 273 272 272 273 274 279 281 282 281 284 291 293 293 295 298 301 300 298 299 297 299 299
233 240 244 248 249 252 256 258 260 260 259 260 260 261 264 267 268 271 272 272 275 275 274 275 277 279 282 286 290 294 296 295 296 296 296 296 296 299
252 255 256 254 252 255 258 259 258 258 257 258 263 262 265 266 267 269 271 272 273 275 275 274 276 277 280 285 288 288 291 291 291 291 290 294 297 298
249 246 246 246 250 254 254 255 254 255 258 260 263 268 269 268 271 270 267 267 268 271 273 275 278 280 285 284 284 288 288 287 288 290 290 291 293 297
249 251 251 252 253 254 255 259 261 259 264 262 268 269 271 272 275 275 278 275 273 273 277 279 282 283 282 284 282 284 284 284 285 284 286 288 292 295